Tracking 25709 objects as of 23-May-2022
HD Live streaming from Space Station
objects crossing your sky now

DELTA 1 DEB

Track DELTA 1 DEB now!
10-day predictions


NORAD ID: 10221
Int'l Code: 1977-065AY
Perigee: 487.4 km
Apogee: 1,109.3 km
Inclination: 29.0 °
Period: 100.7 minutes
Semi major axis: 7169 km
RCS: 0.0303 m2 (small)
Launch date: July 14, 1977
Source: United States (US)
Launch site: AIR FORCE EASTERN TEST RANGE (AFETR)

Note: This is SATELLITE DEBRIS
aabbcc
Your satellite tracking list
Your tracking list is empty




NASA's NSSDC Master Catalog

Two Line Element Set (TLE):
1 10221U 77065AY  22143.43772440  .00004830  00000-0  62396-3 0  9998
2 10221  29.0312 169.8472 0433744 124.3458 239.8941 14.30152847257379
Source of the keplerian elements: AFSPC